Temperature
22 21 20 22 26 29 29 30 30 30 30 29 28 28 29 28 28 26 22 21 21 20 19 20 19 19 19 19 19 19 19 19 19 19 19 19 19 19 18 18 18 18 18 18 18 18 18 18 18
21 21 21 25 29 29 29 30 30 30 29 28 27 27 28 27 25 23 21 21 20 20 19 19 19 19 19 19 19 19 19 19 19 19 19 19 19 18 18 18 18 18 18 18 18 18 18 18 18
21 21 25 29 29 30 30 30 30 30 28 28 28 27 27 26 23 22 21 20 20 20 19 19 19 19 19 19 19 19 19 19 19 19 19 19 18 18 18 18 18 18 18 18 18 18 18 18 18
22 24 26 29 30 30 30 31 31 30 28 28 28 28 26 23 22 21 20 20 20 19 19 18 19 19 19 19 19 19 19 19 19 19 19 19 18 18 18 18 18 18 18 18 18 18 18 18 17
23 27 29 30 30 31 31 30 30 30 30 29 28 28 26 22 21 20 20 20 20 20 19 18 19 19 19 19 19 19 19 19 19 19 19 18 18 18 18 18 18 18 18 18 18 18 18 18 17
26 28 29 30 30 30 31 30 30 31 30 29 28 28 25 21 21 20 20 20 20 20 19 18 19 19 19 19 19 19 19 19 19 19 18 18 18 18 18 18 18 18 18 18 18 18 17 17 17
27 29 30 30 30 30 31 30 30 31 30 29 28 28 24 21 21 20 20 20 20 20 19 18 18 19 19 19 19 19 19 19 19 18 18 18 18 18 18 18 18 18 17 17 17 17 17 17 17
26 29 30 30 30 30 30 30 29 30 30 28 27 28 26 21 20 20 20 20 20 19 19 18 18 18 18 19 19 19 19 19 19 18 18 18 18 18 17 17 17 17 17 17 17 17 17 17 17
25 29 30 31 30 31 30 30 29 28 28 27 26 26 24 21 20 20 19 19 19 19 19 18 18 18 18 18 18 18 18 18 18 18 18 18 17 17 17 17 17 17 17 17 17 17 17 17 17
27 29 30 31 31 31 31 30 30 29 29 27 26 24 22 21 20 20 19 19 19 19 18 18 18 18 18 18 18 18 18 18 18 17 17 17 17 17 17 17 17 17 17 17 17 17 17 17 17
28 29 30 30 30 30 30 30 29 30 30 29 27 24 21 21 20 20 19 19 19 18 18 18 18 18 18 18 18 18 17 18 17 17 17 17 17 17 17 17 17 17 17 17 17 17 17 17 17
28 29 29 30 29 29 30 30 30 30 30 28 27 24 22 21 20 20 19 19 19 18 18 18 18 17 18 18 18 18 17 17 17 17 18 17 17 17 17 17 17 17 17 17 17 17 17 17 17
28 29 29 29 29 29 29 30 29 29 28 26 25 23 22 21 21 20 20 19 19 18 18 18 18 17 18 18 18 18 18 17 17 17 17 17 17 17 17 17 17 17 16 16 16 16 16 16 16
29 29 29 29 29 29 29 30 29 29 27 25 24 23 22 21 21 20 19 19 18 18 18 18 17 18 18 18 18 17 17 17 17 17 17 17 17 17 17 17 17 16 16 16 16 16 16 16 16
28 29 30 30 30 29 29 30 30 28 26 25 24 23 22 21 20 20 19 18 18 18 18 17 17 18 18 18 18 17 17 17 17 17 18 18 17 17 17 17 17 16 16 17 16 16 16 16 17
29 29 29 30 30 29 29 30 30 27 26 26 24 23 22 21 20 19 19 18 18 18 17 17 17 17 18 17 17 17 17 17 17 17 17 17 17 17 17 17 16 16 16 16 16 16 16 16 17
29 29 30 30 30 30 30 30 29 27 26 26 24 23 22 21 20 19 18 18 18 17 17 17 17 17 17 17 17 17 17 17 17 17 17 17 17 17 17 16 16 17 16 16 16 16 16 16 16
29 29 29 30 30 29 29 30 29 27 26 26 24 23 22 21 20 19 18 18 18 17 17 17 17 17 17 17 17 17 17 17 17 17 17 17 17 17 17 16 17 16 16 16 16 16 16 16 16
29 29 29 29 30 29 29 29 29 27 26 26 25 23 22 21 20 19 18 18 17 17 17 17 17 17 17 17 17 17 17 17 17 17 17 17 17 17 17 16 16 16 16 16 16 16 16 16 16
28 28 29 29 29 29 29 29 29 27 26 25 25 23 23 22 20 19 18 17 17 17 17 17 17 17 17 17 17 17 17 17 17 17 17 17 17 17 16 16 16 16 16 16 16 16 16 16 16
28 28 29 29 29 29 28 29 28 27 26 25 24 23 23 22 21 19 18 17 17 17 17 17 17 17 17 17 17 17 17 16 16 16 17 17 17 17 16 16 16 16 16 16 16 16 15 16 16
28 29 29 28 28 29 28 28 29 28 27 26 25 24 23 22 21 19 18 17 17 17 17 17 17 17 17 17 17 17 17 16 17 17 17 17 17 16 16 16 16 16 16 16 16 15 15 16 16
28 28 28 28 28 29 29 28 29 28 27 27 26 24 23 22 21 20 19 18 17 17 16 16 16 17 17 17 17 17 16 17 17 16 16 16 16 16 16 16 16 16 16 15 15 15 15 15 16
28 28 28 28 29 28 28 28 28 29 28 27 26 24 23 22 21 19 19 18 17 17 16 16 16 16 16 16 16 17 16 16 16 16 16 16 16 16 16 16 16 16 15 15 15 15 15 15 15
28 28 27 27 27 27 28 28 28 29 28 27 26 25 23 22 21 19 19 18 17 17 16 16 16 16 16 16 16 16 16 16 17 16 16 16 16 16 16 16 16 15 15 15 15 15 15 15 15
28 28 27 26 27 28 27 28 29 28 27 26 25 24 23 22 21 20 19 18 17 17 16 16 16 16 16 16 16 16 16 16 16 16 16 16 16 16 16 16 16 15 15 15 15 15 15 15 15
28 28 29 28 28 27 28 28 29 28 27 26 25 24 23 22 21 20 19 18 17 17 16 16 16 16 16 16 16 16 16 16 16 16 16 16 16 16 16 16 16 15 15 15 15 15 15 15 15
29 29 28 27 26 26 27 28 28 28 27 26 26 25 24 22 21 20 19 18 18 17 17 16 16 16 16 16 16 16 16 16 16 16 16 16 16 16 16 15 15 15 15 15 15 14 15 14 14
27 28 28 28 27 26 26 27 28 28 27 27 26 25 24 23 22 21 20 19 18 17 17 16 16 16 16 16 16 16 16 16 16 16 16 16 16 16 16 16 16 15 15 15 15 14 14 14 14
28 28 28 27 26 27 27 27 28 27 27 26 26 24 24 23 22 21 20 19 18 17 17 17 16 16 16 16 16 16 16 16 16 16 16 16 16 16 16 16 16 15 15 15 15 15 14 14 14
Wind_Speed
10 8 5 4 5 4 2 3 1 2 2 2 3 1 0 1 2 3 7 18 20 21 23 23 21 20 19 19 18 18 17 17 16 16 15 14 13 13 13 12 12 13 13 13 13 13 13 13 14
7 5 5 5 5 3 4 3 2 2 3 3 4 2 0 2 4 6 11 18 22 22 23 23 22 20 20 19 18 18 17 17 16 15 15 14 13 13 12 12 12 13 13 13 13 13 13 13 13
6 6 5 5 4 2 3 3 2 3 4 4 3 1 1 3 5 7 12 21 21 21 22 23 23 21 20 19 18 18 17 17 16 15 14 14 13 13 12 12 13 13 13 13 13 13 13 12 12
5 5 5 6 4 1 0 1 2 4 5 4 4 3 4 4 4 8 18 22 22 21 21 24 23 21 20 19 19 18 17 17 16 15 14 13 13 13 13 13 13 13 13 13 13 12 12 12 12
6 5 7 7 3 2 2 2 3 5 4 5 5 3 4 5 7 13 20 22 21 20 21 24 23 22 21 20 19 18 17 16 16 15 14 13 13 13 13 13 13 13 12 12 12 11 11 11 11
5 5 7 5 4 3 2 2 4 5 5 5 5 3 4 6 10 16 20 20 20 20 20 23 22 21 20 19 18 18 17 16 15 14 13 14 13 13 13 13 13 12 12 12 11 11 10 9 9
8 6 6 4 3 4 1 2 4 4 5 4 3 3 6 8 12 17 19 18 18 18 18 20 21 20 19 18 18 17 17 16 15 14 14 14 13 13 13 13 12 12 11 11 11 10 9 9 9
6 5 7 5 5 3 2 1 2 5 4 2 4 4 5 11 15 17 18 17 17 17 17 18 20 20 19 18 18 17 16 16 15 14 14 13 13 13 12 13 12 11 10 10 10 9 8 8 8
5 7 7 4 4 3 2 2 2 3 4 5 4 0 7 18 18 18 17 17 16 16 16 17 17 17 18 18 18 17 16 15 15 14 13 13 12 13 12 12 12 10 10 9 9 8 7 7 9
7 9 4 1 3 3 2 4 3 5 8 8 7 6 13 19 20 21 20 21 20 19 18 16 17 16 16 15 16 15 15 15 13 13 13 10 9 8 10 13 11 10 10 9 8 6 6 6 8
8 8 4 4 5 6 6 5 5 8 8 9 10 11 16 20 20 20 20 20 20 19 18 17 16 16 15 12 13 11 11 12 11 12 11 9 9 9 9 10 10 9 9 7 8 6 3 3 3
9 10 9 8 6 7 7 6 6 9 7 2 5 12 18 20 20 20 20 19 19 19 19 18 17 15 14 13 11 11 10 10 10 11 11 10 7 7 7 6 7 7 6 4 4 3 3 3 3
13 10 8 9 10 9 9 9 8 8 5 2 4 13 18 19 19 18 18 18 19 19 19 18 17 16 14 11 10 10 9 10 11 11 10 9 8 6 6 5 5 5 5 5 4 4 4 3 2
8 10 10 10 9 8 9 9 8 7 5 5 8 12 15 16 17 17 17 18 19 19 19 18 17 17 15 12 10 9 10 9 10 11 11 10 8 7 6 6 5 5 5 4 3 4 3 3 2
8 10 11 10 8 6 7 11 10 6 5 7 8 10 14 14 15 17 18 18 18 19 18 18 17 17 16 14 12 10 10 11 9 10 11 10 9 8 7 5 5 5 6 5 4 4 3 3 3
9 10 10 7 6 5 8 9 4 5 7 7 8 9 12 13 15 14 15 16 16 17 17 17 16 16 16 13 11 9 10 10 9 10 11 10 9 9 7 6 5 6 6 5 4 4 4 3 3
11 11 9 6 6 5 8 8 2 4 7 7 8 8 10 11 12 13 14 15 15 16 16 17 16 17 15 14 11 10 9 9 9 9 10 11 10 9 8 5 5 6 5 4 4 4 3 4 3
9 8 8 7 4 6 9 8 3 5 6 7 7 8 9 10 11 12 13 13 13 14 15 16 16 16 15 12 10 8 9 8 8 9 9 11 10 10 8 6 6 6 5 4 3 4 3 3 3
6 8 9 6 3 6 8 8 5 5 7 8 8 8 9 9 10 11 12 12 13 14 16 16 16 16 14 12 11 10 10 9 8 8 10 11 10 11 8 6 7 6 5 5 6 5 5 4 4
10 11 10 5 3 5 7 8 4 5 7 7 8 8 9 9 9 10 12 12 14 15 16 16 17 16 15 12 11 9 9 9 8 8 10 11 10 10 10 7 7 6 5 6 5 5 4 4 4
12 11 9 6 4 6 7 9 6 5 6 7 7 8 8 9 10 11 12 13 14 15 16 15 16 16 16 14 11 9 8 7 8 9 9 10 11 10 9 8 7 6 7 6 6 6 6 5 5
11 8 8 8 8 6 5 8 5 5 6 7 8 8 8 8 10 10 11 13 14 15 15 15 15 15 16 15 14 14 12 11 10 9 8 9 10 10 10 9 8 7 6 6 7 7 5 5 5
8 4 7 8 9 9 7 8 3 4 5 6 7 8 8 8 9 10 11 12 14 14 15 15 15 15 15 15 15 14 12 10 9 9 9 9 9 9 10 10 8 7 6 6 5 5 6 6 5
6 6 6 8 9 10 6 7 4 1 2 3 5 7 7 8 8 9 9 11 12 13 14 15 15 15 15 15 15 14 14 12 12 11 10 9 8 8 10 10 8 8 6 7 6 6 6 5 4
10 10 8 8 8 7 3 6 4 2 0 2 4 6 7 7 8 8 10 11 12 13 13 14 15 15 15 15 14 14 14 14 14 13 12 10 9 9 10 9 8 7 7 7 6 6 5 5 5
12 13 10 7 7 5 4 5 1 2 2 1 4 6 7 7 7 8 10 11 11 13 13 14 15 15 15 15 14 13 14 11 11 12 11 11 9 9 10 10 9 8 8 8 7 6 6 5 5
10 12 10 10 9 8 4 3 3 3 3 3 5 7 7 8 8 8 9 11 12 13 14 14 15 15 15 15 14 13 13 12 12 12 12 11 9 9 10 10 10 9 9 8 7 5 6 5 6
10 9 7 9 8 8 7 5 3 1 1 4 5 7 8 8 9 9 10 11 12 12 12 14 15 15 15 14 14 13 13 13 12 12 12 11 11 10 11 11 10 10 9 9 8 7 6 6 6
9 10 9 8 8 9 7 2 2 2 1 2 5 6 8 9 10 10 10 11 12 12 12 13 13 14 14 15 14 13 13 13 13 12 13 12 11 11 12 11 11 11 10 10 9 8 7 8 7
8 9 10 9 8 8 9 3 6 3 2 2 4 6 7 8 9 10 11 11 12 12 13 13 13 14 14 14 14 13 13 14 14 14 13 13 12 12 12 12 11 11 11 10 10 10 9 9 8
Wind_Direction
190 198 220 237 242 226 122 99 88 100 100 98 134 160 10 34 360 62 121 152 150 149 147 152 151 149 147 144 141 140 139 137 135 133 130 128 125 121 118 117 113 108 105 104 104 103 101 102 102
184 193 228 244 256 201 126 126 127 74 88 129 150 182 159 95 64 105 139 151 151 149 150 155 150 150 148 145 143 141 140 138 136 134 132 129 125 122 121 118 114 111 108 107 105 104 102 101 103
186 223 255 252 250 264 107 125 110 107 143 166 156 158 36 81 111 134 147 153 152 151 152 149 152 152 149 147 145 144 142 139 138 136 133 130 126 123 120 117 115 112 110 109 106 105 104 105 106
201 223 238 248 230 184 304 133 170 165 168 188 182 139 103 72 117 139 149 156 153 154 153 150 155 153 151 149 147 146 144 142 140 138 134 130 127 124 120 117 115 113 110 109 108 106 106 107 110
234 247 240 230 213 172 221 251 221 200 185 187 199 153 117 106 119 141 153 157 157 156 153 152 157 156 154 152 150 148 146 143 141 138 135 131 128 125 122 118 115 112 110 109 108 107 106 106 110
225 241 242 220 173 185 210 209 215 214 197 190 203 190 110 122 140 150 156 160 159 156 154 151 158 158 156 154 153 151 147 145 142 140 138 132 128 125 123 120 117 114 112 109 107 105 106 108 111
248 247 250 239 197 187 171 229 226 223 212 200 200 186 128 142 148 152 155 161 160 158 155 155 161 161 159 157 155 153 150 147 145 143 139 133 130 127 125 122 119 117 114 111 107 103 103 109 115
254 256 234 219 216 176 126 203 246 240 212 170 198 214 149 151 151 152 157 161 161 162 161 162 164 163 164 162 159 156 153 151 147 144 140 135 133 131 131 132 123 120 117 113 108 104 103 107 117
241 244 228 206 211 173 150 237 206 225 190 186 201 163 116 144 151 154 159 164 166 168 168 167 164 166 168 165 159 160 157 154 152 150 146 154 152 144 147 122 125 124 119 113 108 106 111 125 130
225 241 229 227 261 271 262 260 225 209 208 203 188 146 138 151 160 164 169 172 173 174 174 173 168 169 170 166 159 166 165 161 167 156 159 161 141 139 130 123 129 126 123 120 112 122 159 193 146
226 244 257 253 262 281 274 259 228 234 229 220 208 177 163 165 169 174 177 179 177 177 177 175 173 173 170 166 165 169 165 163 167 159 161 151 149 147 142 144 143 142 150 144 138 171 157 129 92
235 247 259 265 278 274 272 263 240 240 252 279 218 175 171 176 179 181 180 181 179 180 181 178 175 175 175 171 168 169 167 166 167 162 168 159 157 155 148 150 145 146 139 134 152 144 122 103 120
233 251 255 260 267 269 266 252 251 248 246 233 185 170 179 184 184 185 183 183 182 184 183 180 178 177 174 172 175 174 170 170 165 162 169 167 162 162 152 148 149 148 141 157 163 147 137 143 145
236 250 261 262 260 253 247 245 238 239 222 200 187 183 187 188 185 184 186 187 185 186 183 180 182 179 177 175 177 172 171 169 167 168 167 174 168 161 159 160 162 155 157 151 164 148 160 162 145
251 256 251 238 235 228 239 238 228 216 200 200 197 193 189 190 188 190 189 189 189 188 183 181 182 181 179 177 178 175 172 172 173 168 168 175 174 165 168 166 171 157 151 154 170 159 171 169 162
234 240 238 203 214 206 234 251 193 185 202 208 201 191 185 189 193 193 189 190 189 188 184 182 183 181 178 177 179 177 176 173 175 170 171 177 175 171 177 174 168 159 169 173 168 188 183 168 177
221 232 232 204 199 216 243 268 172 189 208 210 203 194 188 187 191 191 189 190 189 188 182 181 184 179 176 175 177 180 174 175 178 176 175 175 177 177 182 176 154 171 180 184 192 171 194 175 178
222 232 234 235 204 239 253 266 228 199 213 212 202 195 189 193 193 190 188 187 187 185 181 181 182 178 175 174 175 180 177 178 182 182 179 176 179 180 184 174 168 187 187 189 182 160 178 183 189
259 256 253 259 258 258 258 267 251 211 214 212 206 201 198 200 193 187 187 185 184 184 182 181 181 178 175 176 178 180 182 180 182 186 181 182 184 182 188 184 173 196 195 192 184 180 172 184 183
242 249 253 243 206 257 268 267 248 217 218 217 211 208 207 200 192 189 188 187 187 186 186 184 183 179 180 180 180 185 181 182 183 185 178 183 186 186 189 191 191 195 189 188 190 198 201 184 194
237 245 254 269 260 233 264 249 211 207 211 211 212 212 213 207 201 193 193 193 192 190 189 189 185 181 183 181 177 174 169 175 182 184 180 183 187 191 193 191 199 192 198 190 195 196 209 201 196
235 244 262 262 256 247 250 278 210 205 214 213 211 211 213 207 202 197 196 194 193 192 188 187 185 185 183 181 181 179 183 186 187 183 178 179 185 189 189 193 195 198 202 187 202 196 207 215 208
243 254 255 252 251 261 237 270 256 190 232 220 206 205 206 200 199 199 195 192 190 188 186 185 183 183 182 184 185 186 190 189 179 175 171 178 183 189 190 191 190 194 199 192 204 190 217 218 228
219 217 226 235 246 249 251 269 278 232 263 221 194 195 197 195 194 194 190 186 185 183 182 180 178 181 182 185 186 189 188 182 177 176 174 181 182 188 191 191 190 193 191 187 197 201 206 226 229
212 224 226 225 227 243 205 261 284 7 356 235 201 193 188 185 184 181 180 179 178 176 176 175 174 179 182 184 187 190 188 184 182 181 181 184 186 190 190 191 190 191 189 189 191 195 202 203 208
213 229 243 252 251 245 195 252 292 97 113 165 188 183 178 177 175 175 176 175 173 171 171 172 175 178 180 183 187 189 187 187 188 188 184 188 193 192 183 187 188 189 188 188 186 194 192 196 206
215 229 250 260 265 268 246 237 220 171 179 170 173 177 178 175 170 172 172 171 171 170 171 174 177 176 177 181 181 185 188 190 187 185 188 189 191 185 182 188 189 189 188 189 191 202 197 195 207
242 230 226 244 258 259 252 243 267 211 172 171 177 180 177 174 172 169 170 169 170 171 172 175 174 173 175 176 179 183 187 187 184 186 190 188 186 184 182 190 193 192 192 193 200 199 197 202 209
202 218 234 243 254 261 263 245 73 30 60 172 175 176 175 177 175 171 170 170 169 168 168 171 173 173 175 179 181 183 185 186 187 190 190 189 187 185 188 191 195 196 197 197 201 210 196 207 208
230 233 224 238 241 251 269 262 89 76 83 140 155 161 167 174 173 172 170 170 171 171 171 174 177 177 179 180 181 184 185 185 187 190 191 190 189 190 192 195 199 201 201 201 204 211 206 209 212
Height
1508 1509 1510 1511 1504 1495 1494 1491 1488 1490 1490 1494 1496 1497 1496 1498 1501 1509 1511 1512 1516 1519 1522 1525 1529 1532 1535 1538 1540 1542 1544 1546 1547 1548 1550 1551 1552 1553 1554 1555 1556 1557 1558 1559 1560 1561 1561 1562 1563
1510 1510 1512 1508 1496 1496 1495 1489 1489 1489 1492 1496 1497 1499 1498 1500 1505 1508 1509 1513 1516 1520 1523 1526 1529 1533 1536 1539 1541 1544 1545 1547 1548 1550 1551 1553 1554 1555 1556 1557 1558 1559 1560 1561 1562 1563 1564 1564 1565
1510 1511 1510 1499 1493 1493 1492 1487 1488 1491 1494 1496 1497 1499 1500 1503 1507 1508 1510 1513 1518 1521 1525 1527 1530 1534 1537 1540 1543 1545 1547 1548 1550 1551 1553 1554 1556 1557 1558 1559 1560 1561 1562 1563 1564 1565 1566 1566 1567
1511 1511 1507 1497 1492 1487 1487 1486 1488 1491 1494 1496 1496 1498 1502 1506 1507 1508 1509 1513 1518 1522 1526 1528 1531 1535 1538 1541 1544 1546 1548 1550 1551 1553 1554 1556 1557 1558 1560 1561 1562 1563 1564 1565 1566 1567 1568 1569 1569
1511 1506 1497 1492 1488 1486 1486 1487 1488 1488 1491 1494 1496 1496 1502 1506 1506 1507 1510 1515 1519 1523 1527 1529 1532 1536 1539 1542 1545 1547 1549 1551 1553 1554 1556 1557 1559 1560 1561 1563 1564 1565 1566 1567 1568 1569 1570 1571 1572
1508 1501 1494 1490 1487 1486 1485 1487 1488 1487 1490 1493 1495 1496 1502 1505 1506 1508 1512 1516 1521 1524 1528 1529 1533 1537 1540 1543 1546 1548 1550 1552 1554 1556 1557 1559 1560 1562 1563 1564 1565 1566 1568 1569 1570 1571 1572 1573 1574
1504 1496 1490 1487 1487 1486 1486 1487 1487 1487 1489 1492 1495 1496 1502 1505 1507 1509 1513 1518 1522 1525 1528 1530 1534 1537 1541 1544 1547 1549 1551 1553 1555 1557 1559 1560 1562 1563 1565 1566 1567 1568 1569 1571 1572 1573 1574 1575 1576
1503 1495 1488 1486 1487 1485 1486 1487 1488 1488 1489 1494 1496 1495 1500 1505 1506 1510 1514 1518 1522 1526 1529 1532 1535 1538 1541 1545 1547 1550 1552 1554 1556 1558 1560 1561 1563 1564 1566 1568 1569 1570 1571 1572 1574 1575 1576 1577 1578
1504 1497 1487 1483 1484 1482 1485 1486 1488 1489 1491 1494 1496 1497 1499 1502 1505 1509 1513 1517 1521 1524 1528 1532 1535 1538 1542 1545 1547 1550 1552 1555 1557 1559 1561 1563 1565 1567 1568 1569 1570 1571 1573 1574 1575 1577 1578 1579 1580
1500 1490 1483 1483 1482 1482 1484 1485 1486 1488 1488 1492 1495 1498 1499 1500 1503 1506 1510 1514 1517 1522 1526 1530 1534 1537 1542 1546 1547 1550 1553 1555 1558 1560 1562 1564 1566 1568 1570 1570 1571 1572 1574 1575 1577 1578 1579 1581 1583
1494 1488 1483 1484 1484 1484 1483 1483 1485 1484 1483 1486 1490 1495 1497 1499 1502 1505 1508 1512 1516 1520 1525 1528 1532 1536 1541 1544 1547 1550 1553 1555 1558 1560 1562 1564 1566 1568 1570 1571 1572 1574 1575 1577 1578 1580 1582 1583 1583
1491 1487 1486 1485 1484 1484 1483 1482 1483 1482 1483 1485 1488 1491 1494 1497 1500 1503 1506 1511 1515 1519 1523 1527 1531 1534 1539 1543 1546 1549 1552 1555 1558 1559 1562 1564 1567 1569 1571 1572 1574 1575 1576 1577 1580 1580 1581 1582 1584
1488 1485 1484 1484 1483 1482 1482 1481 1481 1481 1483 1485 1488 1490 1492 1495 1498 1502 1505 1509 1513 1516 1520 1524 1528 1532 1536 1540 1544 1548 1551 1554 1557 1559 1561 1564 1566 1568 1570 1572 1573 1576 1577 1578 1579 1581 1581 1582 1583
1483 1483 1482 1481 1480 1480 1480 1478 1480 1479 1482 1484 1486 1488 1490 1493 1496 1500 1503 1506 1509 1513 1517 1521 1526 1530 1534 1538 1542 1546 1550 1552 1556 1558 1561 1563 1566 1568 1569 1571 1573 1575 1576 1578 1579 1580 1581 1582 1583
1485 1482 1477 1475 1476 1477 1478 1475 1474 1477 1481 1483 1484 1485 1488 1492 1494 1497 1499 1503 1507 1511 1515 1518 1523 1528 1532 1536 1541 1545 1548 1551 1555 1557 1559 1562 1565 1567 1569 1571 1572 1574 1575 1576 1578 1579 1580 1581 1583
1480 1478 1476 1470 1473 1474 1478 1473 1470 1476 1479 1480 1482 1483 1486 1489 1492 1495 1497 1500 1504 1508 1512 1515 1520 1525 1529 1534 1538 1543 1547 1550 1553 1556 1559 1561 1564 1566 1568 1570 1572 1573 1575 1576 1577 1579 1580 1581 1582
1476 1475 1472 1469 1469 1471 1472 1469 1469 1474 1476 1478 1480 1482 1485 1488 1490 1493 1495 1498 1501 1504 1508 1512 1517 1522 1527 1532 1536 1541 1545 1548 1552 1555 1558 1560 1562 1565 1567 1569 1571 1572 1574 1575 1577 1578 1579 1580 1581
1473 1471 1471 1469 1466 1469 1468 1466 1467 1472 1474 1476 1478 1481 1483 1486 1488 1491 1493 1495 1498 1502 1505 1510 1514 1519 1524 1529 1534 1539 1543 1546 1550 1554 1556 1559 1561 1563 1566 1568 1569 1571 1573 1574 1575 1576 1577 1579 1580
1471 1472 1471 1467 1466 1468 1466 1465 1464 1469 1472 1474 1476 1479 1481 1484 1487 1489 1490 1493 1495 1498 1502 1506 1511 1516 1521 1526 1531 1536 1540 1544 1548 1552 1555 1557 1560 1562 1564 1567 1568 1570 1571 1572 1574 1575 1576 1578 1579
1473 1474 1470 1465 1466 1467 1465 1464 1462 1466 1469 1471 1474 1476 1479 1482 1484 1486 1488 1490 1492 1494 1498 1503 1507 1513 1518 1523 1528 1533 1538 1542 1546 1550 1552 1555 1558 1560 1563 1564 1566 1568 1569 1571 1572 1574 1576 1577 1578
1470 1469 1467 1467 1464 1464 1466 1463 1461 1463 1467 1470 1472 1474 1476 1478 1481 1483 1485 1487 1489 1491 1495 1499 1503 1509 1514 1520 1525 1530 1535 1539 1543 1547 1550 1553 1556 1558 1561 1562 1565 1566 1568 1570 1571 1572 1574 1576 1577
1469 1462 1464 1465 1467 1463 1465 1468 1458 1458 1462 1465 1469 1471 1473 1476 1478 1480 1482 1483 1485 1488 1491 1495 1500 1505 1510 1516 1521 1526 1531 1535 1540 1544 1547 1550 1553 1556 1558 1560 1562 1564 1566 1568 1569 1571 1572 1574 1575
1462 1462 1463 1462 1463 1464 1461 1466 1456 1455 1459 1460 1463 1468 1471 1473 1475 1477 1479 1480 1483 1485 1488 1492 1497 1501 1507 1512 1517 1523 1528 1533 1538 1542 1545 1548 1551 1554 1556 1558 1560 1562 1564 1565 1567 1568 1570 1572 1574
1460 1463 1463 1461 1459 1471 1462 1466 1461 1451 1455 1455 1460 1465 1468 1471 1473 1475 1476 1478 1481 1483 1486 1489 1493 1498 1503 1509 1514 1520 1525 1530 1534 1538 1542 1545 1549 1551 1554 1556 1558 1560 1562 1563 1564 1566 1567 1569 1570
1459 1465 1472 1474 1473 1469 1458 1464 1458 1449 1452 1455 1458 1462 1466 1469 1471 1472 1474 1476 1478 1480 1483 1486 1491 1496 1501 1506 1512 1517 1522 1527 1531 1535 1539 1543 1547 1549 1551 1554 1555 1557 1559 1560 1562 1563 1565 1566 1568
1455 1457 1470 1480 1475 1463 1459 1462 1451 1449 1453 1456 1458 1461 1464 1467 1469 1471 1473 1475 1477 1479 1481 1485 1489 1494 1498 1504 1509 1515 1520 1525 1529 1533 1537 1541 1544 1547 1549 1551 1553 1555 1557 1559 1560 1562 1563 1564 1565
1453 1452 1447 1458 1459 1465 1457 1452 1448 1449 1452 1455 1457 1460 1462 1465 1468 1470 1472 1474 1476 1479 1481 1484 1488 1492 1497 1502 1508 1513 1518 1523 1527 1530 1535 1539 1542 1544 1546 1549 1551 1553 1555 1556 1558 1560 1560 1562 1563
1446 1445 1453 1459 1473 1475 1463 1457 1453 1448 1449 1452 1455 1458 1461 1464 1467 1470 1472 1474 1477 1479 1481 1484 1487 1491 1496 1501 1506 1511 1516 1520 1524 1528 1532 1536 1539 1542 1544 1546 1549 1551 1552 1554 1556 1557 1558 1559 1561
1450 1451 1450 1451 1455 1467 1470 1459 1443 1446 1448 1450 1453 1456 1459 1463 1466 1469 1472 1474 1477 1479 1482 1484 1488 1492 1496 1501 1505 1510 1514 1518 1522 1526 1530 1533 1536 1539 1542 1544 1546 1548 1550 1552 1553 1556 1556 1557 1558
1443 1444 1448 1459 1460 1457 1459 1456 1442 1446 1448 1450 1452 1456 1459 1462 1465 1468 1471 1474 1477 1479 1482 1485 1488 1492 1495 1500 1504 1508 1512 1516 1520 1524 1527 1531 1534 1537 1539 1542 1544 1546 1547 1549 1551 1552 1554 1555 1556